Location: Fort Worth, Tx
(32.7431°N, 97.3695°W)
Time: 05:10:08
(UTC-05:00)

Altair - Pass Details

Date: 07 October 2023
Orbit: 1501 x 1682 km, 47.2° (Epoch: 06 December)

Event Time Altitude Azimuth Distance (km) Brightness Sun altitude
Rises 05:56:43 0° 292° (WNW) 4,797 - -32.3°
Reaches altitude 10° 06:00:14 10° 301° (WNW) 3,838 - -31.6°
Exits shadow 06:04:17 24° 320° (NW) 2,915 8.7 -30.7°
Maximum altitude 06:09:01 35° 5° (N) 2,445 8.6 -29.8°
Drops below altitude 10° 06:18:02 10° 68° (ENE) 3,935 10.6 -27.9°
Sets 06:21:41 0° 77° (ENE) 4,931 11.5 -27.2°
